SCP
0 0 0 0 0 0 0 0 -0 -0 0 0 0 0 -0 0 0 -0 0 0 -0 -1 -0 -0 -0 -0 -0 -0 -0 -0 -0 -0 -0 -0 -0 -0 0 0 0 0 0 0 0 -0 -0 0 -0 -0 -0
0 0 0 0 0 0 -0 0 0 0 -0 -0 -0 0 0 -0 -0 -0 0 0 -0 -0 -0 -0 -0 -0 -0 -0 -0 -0 -0 -0 -0 -0 -0 -0 0 0 0 0 0 0 0 -0 -0 0 -0 -0 -0
0 0 0 0 0 0 0 -0 0 0 0 0 0 -0 -0 0 0 0 0 -0 -0 -0 -0 -0 -0 -0 -0 -0 -0 -0 -0 -0 -0 -0 -0 -0 0 0 0 0 0 0 0 -0 -0 -0 0 -0 -0
0 0 0 0 0 0 0 0 -0 0 0 0 -0 0 -0 -0 -0 0 -0 -0 -0 0 -0 -0 -0 -0 -0 -0 -0 -0 -0 -0 -0 -0 -0 -0 0 0 0 0 0 0 0 -0 -0 -0 0 0 -0
0 0 0 0 -0 0 0 0 -0 -0 0 0 0 -0 -0 0 -0 -0 -0 -0 -0 0 0 0 -0 -0 -0 -0 -0 -0 -0 -0 -0 -0 -0 -0 -0 0 0 0 0 0 0 0 0 0 0 0 0
0 0 0 0 0 0 0 -0 0 0 0 0 0 0 0 -0 -0 -0 -0 0 0 0 0 0 -0 -0 -0 -0 -0 -0 -0 -0 -0 -0 -0 -0 -0 0 0 0 0 0 0 0 0 0 0 0 0
0 0 0 0 0 -0 -0 0 0 0 0 0 0 0 0 -0 0 0 -0 0 1 1 1 1 0 0 0 -0 -0 -0 -0 -0 -0 -0 -0 -0 -0 0 0 0 0 0 0 0 0 0 0 -0 -0
0 0 0 0 0 -0 -0 -0 -0 0 0 -0 0 0 0 0 0 0 0 -0 1 1 1 1 1 0 0 0 0 0 0 0 -0 -0 -0 0 0 0 0 0 0 0 0 0 0 0 0 -0 -0
0 0 0 0 0 0 0 -0 0 0 0 0 0 0 0 0 -0 0 0 0 0 0 1 1 0 0 0 0 0 0 0 0 0 0 0 0 0 0 0 0 0 0 0 -0 -0 -0 -0 -0 -0
0 0 0 0 0 -0 0 0 0 0 0 0 0 0 0 0 -0 0 0 0 0 0 0 0 0 0 0 0 0 0 0 0 0 0 0 0 0 0 0 0 0 0 -0 -0 -0 -0 -0 0 0
0 0 0 0 0 0 0 0 0 0 0 0 0 0 0 0 -0 0 0 0 0 0 0 0 0 0 0 0 0 0 0 0 0 0 0 0 0 0 0 0 0 0 0 0 -0 0 0 0 0
0 0 0 0 0 0 0 0 0 0 0 0 0 0 0 0 0 0 0 0 0 0 0 0 0 0 0 0 0 0 0 0 0 0 0 0 0 0 0 0 0 0 0 -0 -0 0 0 0 0
0 0 0 0 0 0 0 0 0 0 0 0 0 0 0 0 0 0 0 0 0 0 0 0 0 0 0 0 0 0 0 0 0 0 0 0 0 0 0 0 0 0 0 0 0 0 0 0 0
-0 0 0 0 0 0 0 0 0 0 0 0 0 0 0 0 -0 0 0 0 0 0 0 0 0 0 0 0 0 0 0 0 0 0 0 0 0 0 0 0 0 0 0 0 0 0 0 0 0
0 -0 -0 0 0 0 0 0 0 0 0 0 0 0 0 0 0 0 0 0 0 0 0 0 0 0 0 0 0 0 0 0 0 0 0 0 0 0 0 0 0 0 0 0 0 0 0 0 0
0 0 -0 0 0 0 0 0 0 0 0 0 0 0 0 0 0 0 0 0 0 0 0 0 0 0 0 0 0 0 0 0 0 0 0 0 0 0 0 0 0 0 0 0 0 0 0 0 0
0 0 0 -0 0 0 0 -0 -0 0 0 0 0 0 0 0 0 0 0 1 1 0 0 0 0 0 0 0 0 0 0 0 0 0 0 0 0 0 0 0 0 0 0 0 0 0 0 0 0
0 0 0 -0 -0 -0 -0 0 0 0 -0 0 0 0 0 0 0 0 0 1 1 1 0 0 0 0 0 0 0 0 0 0 0 0 0 0 0 0 0 0 0 0 0 0 0 0 0 0 0
0 0 0 0 0 0 0 0 0 0 0 0 0 0 0 0 0 0 0 1 2 1 0 0 0 0 0 0 0 0 0 0 0 0 0 0 0 0 0 0 0 0 0 0 0 0 0 0 0
0 0 0 0 0 0 0 0 0 0 0 -0 -0 0 0 0 0 0 0 1 2 2 1 1 0 1 0 0 0 0 0 0 0 0 0 0 0 0 0 0 0 0 0 0 0 0 0 0 0
0 0 0 0 0 0 0 0 0 0 0 0 0 0 0 0 0 0 0 1 1 2 2 1 2 2 1 1 1 1 0 0 0 0 0 0 0 0 0 0 0 0 0 0 0 0 0 0 0
0 0 0 0 0 0 0 0 0 0 0 0 0 0 0 0 0 0 0 1 1 1 2 2 2 3 2 2 2 1 1 2 1 0 0 0 0 0 0 0 0 0 0 0 0 0 0 0 0
0 0 0 0 0 0 0 0 0 0 0 0 0 0 0 0 0 0 0 0 1 1 2 2 2 3 4 3 2 2 1 1 1 0 0 0 0 0 0 0 0 0 0 0 0 0 0 0 0
0 0 0 0 0 0 0 0 0 0 0 0 0 0 0 0 0 0 0 0 1 1 2 3 4 4 5 3 3 2 1 0 0 0 0 0 0 0 0 0 0 0 0 0 0 0 0 0 0
0 0 0 0 0 0 0 0 0 0 0 0 0 0 0 0 0 0 0 1 2 2 2 3 4 4 4 2 2 2 0 0 0 0 0 0 0 0 0 0 0 0 0 0 0 0 0 0 0
0 0 0 0 0 0 0 0 0 0 0 0 0 0 0 0 0 0 0 0 1 1 2 3 3 3 2 1 2 2 0 0 0 0 0 0 0 0 0 0 0 0 0 0 0 0 0 0 0
0 0 0 0 0 0 0 0 0 0 0 0 0 0 0 0 0 0 0 0 0 0 1 1 1 1 0 0 1 1 0 0 0 0 0 0 0 0 0 0 0 0 0 0 0 0 0 0 0
0 0 0 0 0 0 0 0 0 0 0 0 0 0 0 0 0 0 0 0 0 0 0 0 0 0 0 0 0 0 0 0 0 0 0 0 0 0 0 0 0 0 0 0 0 0 0 0 0
0 0 0 0 0 0 0 0 0 0 0 0 0 0 0 0 0 -0 0 0 0 0 0 1 1 0 0 0 0 0 0 1 0 0 0 0 0 0 0 0 0 0 0 0 0 0 0 0 0
0 0 0 0 0 0 0 0 0 0 -0 0 0 0 0 0 0 0 0 0 0 0 0 0 0 0 1 0 0 0 0 0 0 0 0 0 0 0 0 0 0 0 0 0 0 0 0 0 0
Wind_Speed_500mb
3 6 5 2 7 8 5 11 4 15 7 24 15 12 12 13 11 10 22 70 72 77 72 63 56 51 49 46 43 40 37 34 32 30 28 26 23 22 19 17 15 14 13 11 11 12 12 12 9
3 6 3 5 9 3 10 9 12 17 27 11 19 27 12 16 45 33 23 73 76 76 74 68 61 53 48 46 42 39 36 33 30 28 24 21 19 17 15 13 11 11 10 9 9 10 11 10 8
4 8 4 7 7 10 9 11 22 13 10 13 9 21 14 13 25 30 38 80 83 79 76 69 63 56 50 45 41 38 34 32 28 26 23 19 15 13 11 10 8 9 10 9 8 9 10 9 8
7 8 5 8 13 11 10 5 8 14 37 30 38 12 16 27 15 41 62 77 82 77 76 72 66 58 50 45 42 38 34 31 28 25 22 18 14 11 8 6 5 7 9 9 9 10 12 12 11
12 5 5 4 11 10 10 20 35 21 13 23 30 12 12 20 43 47 73 74 84 76 74 71 67 61 53 46 42 39 35 31 28 24 20 16 13 9 6 3 4 6 9 9 10 7 8 10 11
6 5 5 10 9 8 10 13 21 16 32 21 25 9 8 19 30 52 76 72 85 76 75 70 66 60 55 48 44 41 37 33 29 25 20 16 12 7 3 3 3 6 7 6 5 3 5 10 8
12 8 9 8 6 7 7 10 12 19 24 21 35 15 6 19 21 53 71 78 84 77 75 73 69 62 54 50 45 41 38 34 30 26 22 17 13 7 2 4 5 4 6 6 6 7 12 13 9
9 9 6 8 7 9 9 29 17 35 31 11 12 5 7 9 21 48 71 78 80 77 74 75 71 66 60 53 47 43 39 35 31 27 23 18 13 7 8 9 3 4 10 11 10 9 14 7 2
7 7 7 10 5 9 26 11 30 37 29 32 34 30 44 34 44 52 61 78 78 78 79 77 75 70 63 56 51 46 42 38 34 29 24 19 12 11 15 8 7 11 11 8 8 7 9 3 5
11 8 18 13 8 6 19 22 44 26 30 14 2 10 38 35 50 58 67 80 80 83 81 81 77 73 66 61 56 51 47 42 36 31 26 20 14 20 17 15 11 10 7 2 4 2 2 4 8
12 12 10 13 29 32 17 34 33 16 4 30 9 29 31 44 55 60 66 79 74 77 75 76 71 68 68 64 59 54 49 43 38 34 29 25 22 24 17 12 7 4 1 2 5 7 10 3 6
5 11 12 19 39 18 12 39 22 38 48 32 27 36 33 37 50 67 75 78 72 69 70 72 70 68 68 63 61 55 50 45 41 37 34 30 28 22 19 12 6 3 5 8 9 10 11 1 1
10 16 38 44 46 36 38 34 24 37 46 25 12 42 35 34 48 57 73 72 70 66 67 66 69 74 72 64 61 56 51 46 42 39 36 32 31 26 19 14 17 8 9 12 14 14 4 0 3
8 15 33 26 34 26 13 22 13 28 28 15 23 39 36 34 37 57 73 81 81 72 66 65 68 68 73 66 61 56 51 45 43 41 39 36 34 31 25 18 16 14 14 17 18 14 5 4 4
8 11 16 7 11 10 13 11 12 30 24 17 23 23 31 45 40 65 71 80 88 83 73 70 71 62 70 68 64 57 50 47 46 43 41 39 39 34 27 26 20 19 20 22 19 14 12 7 6
8 8 6 10 9 17 11 15 18 38 33 34 31 34 36 40 43 49 69 81 92 89 84 76 74 66 60 65 64 56 49 42 44 45 43 42 42 37 24 27 27 25 27 23 20 14 12 8 5
13 7 10 16 9 8 8 13 14 41 45 48 49 45 47 45 44 51 65 80 81 93 89 84 80 74 64 66 62 56 54 46 41 45 44 45 46 41 34 33 29 30 28 26 19 13 13 13 11
7 7 8 14 10 9 17 16 19 42 19 37 39 33 43 54 57 48 55 78 77 80 90 94 88 76 68 65 62 64 59 55 52 49 49 42 50 45 44 39 36 33 31 26 20 15 16 18 18
8 8 15 27 25 1 18 14 26 35 25 27 39 43 45 44 51 53 46 51 77 85 93 100 97 85 78 79 76 76 71 66 59 55 52 48 50 50 48 42 39 36 32 24 20 16 15 22 20
11 9 23 22 29 11 20 18 19 16 14 18 31 41 41 44 38 49 38 40 54 83 87 98 102 93 88 89 83 79 74 75 61 59 60 52 51 52 49 45 40 40 35 28 24 20 18 25 26
13 10 19 20 35 9 9 8 11 12 9 25 33 35 41 37 38 38 38 32 34 68 95 91 101 99 96 94 89 87 82 74 69 72 71 57 55 49 51 45 43 44 37 30 26 25 20 20 26
14 15 24 25 10 13 6 21 9 9 14 9 41 47 48 43 37 28 17 32 41 46 74 101 96 104 105 103 96 97 91 90 86 81 79 58 60 56 52 48 48 45 38 33 27 26 23 22 19
17 16 16 13 11 3 6 2 15 4 6 16 27 41 46 41 43 39 27 24 43 53 64 88 111 110 111 110 105 99 93 89 87 84 74 66 63 61 53 51 54 49 41 36 31 26 23 19 19
8 5 8 9 5 8 11 12 7 4 6 7 15 39 48 54 55 49 27 20 35 56 69 87 113 102 93 104 103 100 94 94 90 81 76 73 67 62 54 55 59 51 46 41 34 30 26 19 17
14 11 6 8 4 13 9 3 4 12 14 7 17 39 53 55 66 71 62 19 12 36 59 64 74 90 91 91 101 97 99 99 91 83 79 77 73 69 63 61 64 58 50 45 39 34 28 21 18
7 6 8 7 5 8 11 7 6 14 14 22 35 40 67 72 72 68 70 54 22 18 32 44 58 72 86 95 90 93 93 89 83 79 80 78 72 68 59 59 65 61 57 53 48 41 33 27 19
11 9 5 2 8 4 7 5 8 8 15 23 30 53 63 68 71 70 70 70 52 19 16 30 43 57 53 63 70 76 82 85 83 74 78 80 76 69 58 59 64 61 59 55 51 43 36 30 24
8 3 4 5 6 9 9 8 2 10 13 16 21 28 36 50 59 61 66 68 68 58 38 21 14 11 10 26 43 46 49 75 79 71 81 86 80 65 59 62 73 69 66 62 57 47 37 29 29
9 5 8 5 6 12 3 8 3 7 8 5 11 3 11 18 25 37 38 43 49 54 57 53 38 19 9 13 24 31 25 52 56 74 76 74 50 72 77 72 72 74 67 68 63 53 42 35 33
7 7 7 7 7 5 4 9 7 6 8 5 20 20 5 6 10 22 31 32 31 35 28 30 40 44 41 33 27 33 49 45 57 61 58 69 65 88 87 83 63 66 75 71 67 61 52 47 47
Wind_Direction_500mb
263 298 277 49 61 61 271 262 247 223 200 186 132 164 184 212 200 218 319 182 178 171 170 170 170 171 167 163 160 160 158 158 156 151 144 138 130 122 116 111 104 94 82 73 66 72 77 80 77
212 249 267 115 92 71 262 256 235 242 81 79 175 234 235 244 244 257 255 179 180 174 172 172 173 174 173 167 166 165 162 162 161 154 147 140 132 123 115 107 97 89 76 60 50 54 59 62 79
242 201 191 102 124 194 227 223 240 316 316 124 270 233 205 218 232 221 222 176 180 178 175 174 174 178 178 172 170 170 168 167 166 160 152 146 137 124 112 101 88 80 74 60 45 46 56 52 51
191 166 109 112 217 248 226 66 263 272 297 246 216 254 199 243 226 198 184 178 181 181 179 176 176 182 181 179 176 175 175 174 173 168 161 153 145 133 115 91 74 77 74 71 62 62 73 79 76
194 169 83 197 235 260 267 277 293 283 277 251 212 268 270 215 170 182 178 180 183 183 183 179 179 184 184 184 183 181 182 181 180 176 168 161 152 142 121 89 65 70 69 59 55 50 86 102 94
143 116 88 232 231 247 282 264 284 298 343 241 169 125 291 241 200 182 180 181 184 185 185 184 184 188 187 187 187 186 185 185 186 181 174 168 162 151 114 56 71 76 57 19 26 34 97 153 132
136 94 210 239 236 280 230 320 314 324 323 255 175 165 123 287 225 187 187 186 185 188 186 187 187 190 193 191 191 190 189 189 188 186 180 176 172 162 110 108 96 41 25 51 75 104 113 118 126
180 102 184 259 233 269 204 334 329 336 323 129 160 133 165 242 238 200 190 187 188 190 192 191 192 193 195 196 195 194 194 194 193 190 186 184 178 159 137 132 106 36 79 74 79 113 146 134 44
164 72 216 237 221 241 310 10 321 321 322 303 226 192 193 192 222 200 193 188 190 193 194 196 195 197 198 199 198 196 196 197 197 194 191 190 182 161 136 138 114 105 101 106 82 100 132 188 339
158 154 220 206 211 255 295 307 304 318 342 343 133 184 170 168 195 198 199 193 197 197 197 198 200 201 199 202 202 200 200 200 201 199 196 192 179 158 142 124 117 109 113 154 33 89 95 245 277
192 215 208 258 269 279 280 291 302 294 324 300 283 158 180 202 207 204 209 204 200 202 202 202 206 207 205 206 206 205 204 204 204 202 199 196 185 177 155 145 121 83 359 338 12 353 345 36 221
255 251 239 278 282 278 251 290 295 284 275 287 307 239 208 194 202 201 213 209 203 204 204 205 207 212 213 212 211 210 209 207 208 206 204 203 197 185 190 182 193 273 321 329 342 335 331 326 4
190 254 272 282 287 286 282 267 250 276 289 269 244 175 184 195 207 213 221 220 211 205 202 205 213 214 215 214 214 213 213 213 213 209 211 207 200 195 194 214 227 255 288 306 315 318 301 211 223
269 260 287 295 289 270 229 261 191 282 294 214 197 208 193 199 214 216 218 226 220 212 207 211 214 217 216 215 216 218 216 217 217 214 216 216 207 201 207 217 231 239 263 285 293 285 257 200 216
286 314 325 245 280 270 223 295 219 274 282 270 208 247 240 231 226 231 229 228 225 220 212 215 216 214 216 217 217 218 216 218 219 216 216 217 211 208 214 219 230 239 260 274 274 261 242 233 194
1 52 350 290 327 279 162 270 274 292 295 289 271 256 256 259 240 233 234 239 230 222 219 218 214 214 210 212 214 217 210 207 217 215 215 214 208 209 218 213 220 246 270 259 258 262 227 226 180
4 256 297 315 238 260 153 293 278 304 299 294 286 281 267 260 244 240 239 231 233 224 223 220 217 213 209 210 209 207 207 207 209 204 200 203 209 209 215 215 232 253 250 244 250 252 226 201 172
234 300 279 271 292 346 311 279 287 304 322 297 302 298 285 269 259 241 232 230 233 234 226 224 217 216 209 208 208 207 209 206 199 199 202 206 208 210 216 219 235 249 233 237 236 236 225 202 196
216 234 269 279 273 333 272 273 282 293 312 310 317 323 315 301 265 258 249 235 234 227 224 222 218 220 208 205 210 208 210 203 200 205 208 211 208 211 220 227 243 236 226 229 224 214 219 203 197
208 249 271 291 268 146 276 264 267 279 261 286 311 321 329 326 288 265 252 232 224 226 224 226 220 221 213 213 213 210 208 207 207 209 210 213 214 217 227 232 242 229 221 220 220 218 207 199 190
240 208 260 232 288 273 249 272 248 279 268 306 312 340 357 356 336 302 280 247 241 224 227 228 223 221 217 216 213 209 209 211 210 208 210 208 215 226 228 239 237 224 219 220 219 217 211 198 203
263 224 247 266 273 265 127 273 270 251 294 344 23 20 9 4 1 337 304 253 239 230 228 224 225 223 216 216 216 213 211 209 213 207 207 206 214 225 231 238 225 221 219 218 217 212 215 215 211
229 266 248 244 231 211 275 20 275 217 293 33 12 18 33 33 18 355 319 257 242 239 228 229 221 223 218 218 220 217 214 213 213 207 207 207 213 220 231 229 218 216 216 215 213 215 215 220 224
281 280 11 45 117 247 215 187 248 296 318 57 16 20 26 42 31 19 352 272 234 242 235 227 223 218 214 217 213 214 212 215 215 214 209 208 212 219 225 220 217 215 215 214 214 216 218 218 228
42 59 325 309 318 249 324 80 331 69 34 34 41 29 28 39 49 42 34 23 228 230 225 216 211 213 214 218 212 212 214 221 223 223 217 212 215 219 221 216 214 214 214 215 217 220 219 223 229
14 86 114 268 271 276 324 256 50 75 72 40 48 48 52 50 50 50 50 48 63 185 202 215 217 216 219 229 230 222 224 221 226 222 216 215 218 225 225 224 217 217 216 217 216 214 217 218 220
327 57 149 180 359 11 264 107 101 71 34 26 22 50 49 54 50 48 54 54 60 79 159 179 209 227 234 240 249 243 233 233 225 223 219 217 225 226 228 234 233 223 225 224 221 219 217 219 222
89 279 63 40 354 305 313 335 99 352 20 1 2 30 50 54 58 55 53 54 60 67 79 95 146 155 222 243 245 245 248 245 240 226 224 222 219 222 232 239 238 233 227 227 225 223 217 220 230
4 36 53 99 179 201 201 271 328 292 296 359 303 48 66 53 61 65 62 62 54 52 60 70 66 65 39 287 267 264 230 242 247 250 237 231 237 253 257 242 238 239 238 233 231 225 219 219 230
140 153 117 148 228 261 201 268 221 224 263 343 308 283 352 32 58 79 71 60 50 61 60 41 44 42 35 10 330 295 274 243 240 238 245 227 257 238 236 224 239 248 237 237 238 233 226 220 223
Wind_Speed_850mb
3 6 5 2 7 8 5 11 4 15 7 24 15 12 12 13 11 10 22 70 72 77 72 63 56 51 49 46 43 40 37 34 32 30 28 26 23 22 19 17 15 14 13 11 11 12 12 12 9
3 6 3 5 9 3 10 9 12 17 27 11 19 27 12 16 45 33 23 73 76 76 74 68 61 53 48 46 42 39 36 33 30 28 24 21 19 17 15 13 11 11 10 9 9 10 11 10 8
4 8 4 7 7 10 9 11 22 13 10 13 9 21 14 13 25 30 38 80 83 79 76 69 63 56 50 45 41 38 34 32 28 26 23 19 15 13 11 10 8 9 10 9 8 9 10 9 8
7 8 5 8 13 11 10 5 8 14 37 30 38 12 16 27 15 41 62 77 82 77 76 72 66 58 50 45 42 38 34 31 28 25 22 18 14 11 8 6 5 7 9 9 9 10 12 12 11
12 5 5 4 11 10 10 20 35 21 13 23 30 12 12 20 43 47 73 74 84 76 74 71 67 61 53 46 42 39 35 31 28 24 20 16 13 9 6 3 4 6 9 9 10 7 8 10 11
6 5 5 10 9 8 10 13 21 16 32 21 25 9 8 19 30 52 76 72 85 76 75 70 66 60 55 48 44 41 37 33 29 25 20 16 12 7 3 3 3 6 7 6 5 3 5 10 8
12 8 9 8 6 7 7 10 12 19 24 21 35 15 6 19 21 53 71 78 84 77 75 73 69 62 54 50 45 41 38 34 30 26 22 17 13 7 2 4 5 4 6 6 6 7 12 13 9
9 9 6 8 7 9 9 29 17 35 31 11 12 5 7 9 21 48 71 78 80 77 74 75 71 66 60 53 47 43 39 35 31 27 23 18 13 7 8 9 3 4 10 11 10 9 14 7 2
7 7 7 10 5 9 26 11 30 37 29 32 34 30 44 34 44 52 61 78 78 78 79 77 75 70 63 56 51 46 42 38 34 29 24 19 12 11 15 8 7 11 11 8 8 7 9 3 5
11 8 18 13 8 6 19 22 44 26 30 14 2 10 38 35 50 58 67 80 80 83 81 81 77 73 66 61 56 51 47 42 36 31 26 20 14 20 17 15 11 10 7 2 4 2 2 4 8
12 12 10 13 29 32 17 34 33 16 4 30 9 29 31 44 55 60 66 79 74 77 75 76 71 68 68 64 59 54 49 43 38 34 29 25 22 24 17 12 7 4 1 2 5 7 10 3 6
5 11 12 19 39 18 12 39 22 38 48 32 27 36 33 37 50 67 75 78 72 69 70 72 70 68 68 63 61 55 50 45 41 37 34 30 28 22 19 12 6 3 5 8 9 10 11 1 1
10 16 38 44 46 36 38 34 24 37 46 25 12 42 35 34 48 57 73 72 70 66 67 66 69 74 72 64 61 56 51 46 42 39 36 32 31 26 19 14 17 8 9 12 14 14 4 0 3
8 15 33 26 34 26 13 22 13 28 28 15 23 39 36 34 37 57 73 81 81 72 66 65 68 68 73 66 61 56 51 45 43 41 39 36 34 31 25 18 16 14 14 17 18 14 5 4 4
8 11 16 7 11 10 13 11 12 30 24 17 23 23 31 45 40 65 71 80 88 83 73 70 71 62 70 68 64 57 50 47 46 43 41 39 39 34 27 26 20 19 20 22 19 14 12 7 6
8 8 6 10 9 17 11 15 18 38 33 34 31 34 36 40 43 49 69 81 92 89 84 76 74 66 60 65 64 56 49 42 44 45 43 42 42 37 24 27 27 25 27 23 20 14 12 8 5
13 7 10 16 9 8 8 13 14 41 45 48 49 45 47 45 44 51 65 80 81 93 89 84 80 74 64 66 62 56 54 46 41 45 44 45 46 41 34 33 29 30 28 26 19 13 13 13 11
7 7 8 14 10 9 17 16 19 42 19 37 39 33 43 54 57 48 55 78 77 80 90 94 88 76 68 65 62 64 59 55 52 49 49 42 50 45 44 39 36 33 31 26 20 15 16 18 18
8 8 15 27 25 1 18 14 26 35 25 27 39 43 45 44 51 53 46 51 77 85 93 100 97 85 78 79 76 76 71 66 59 55 52 48 50 50 48 42 39 36 32 24 20 16 15 22 20
11 9 23 22 29 11 20 18 19 16 14 18 31 41 41 44 38 49 38 40 54 83 87 98 102 93 88 89 83 79 74 75 61 59 60 52 51 52 49 45 40 40 35 28 24 20 18 25 26
13 10 19 20 35 9 9 8 11 12 9 25 33 35 41 37 38 38 38 32 34 68 95 91 101 99 96 94 89 87 82 74 69 72 71 57 55 49 51 45 43 44 37 30 26 25 20 20 26
14 15 24 25 10 13 6 21 9 9 14 9 41 47 48 43 37 28 17 32 41 46 74 101 96 104 105 103 96 97 91 90 86 81 79 58 60 56 52 48 48 45 38 33 27 26 23 22 19
17 16 16 13 11 3 6 2 15 4 6 16 27 41 46 41 43 39 27 24 43 53 64 88 111 110 111 110 105 99 93 89 87 84 74 66 63 61 53 51 54 49 41 36 31 26 23 19 19
8 5 8 9 5 8 11 12 7 4 6 7 15 39 48 54 55 49 27 20 35 56 69 87 113 102 93 104 103 100 94 94 90 81 76 73 67 62 54 55 59 51 46 41 34 30 26 19 17
14 11 6 8 4 13 9 3 4 12 14 7 17 39 53 55 66 71 62 19 12 36 59 64 74 90 91 91 101 97 99 99 91 83 79 77 73 69 63 61 64 58 50 45 39 34 28 21 18
7 6 8 7 5 8 11 7 6 14 14 22 35 40 67 72 72 68 70 54 22 18 32 44 58 72 86 95 90 93 93 89 83 79 80 78 72 68 59 59 65 61 57 53 48 41 33 27 19
11 9 5 2 8 4 7 5 8 8 15 23 30 53 63 68 71 70 70 70 52 19 16 30 43 57 53 63 70 76 82 85 83 74 78 80 76 69 58 59 64 61 59 55 51 43 36 30 24
8 3 4 5 6 9 9 8 2 10 13 16 21 28 36 50 59 61 66 68 68 58 38 21 14 11 10 26 43 46 49 75 79 71 81 86 80 65 59 62 73 69 66 62 57 47 37 29 29
9 5 8 5 6 12 3 8 3 7 8 5 11 3 11 18 25 37 38 43 49 54 57 53 38 19 9 13 24 31 25 52 56 74 76 74 50 72 77 72 72 74 67 68 63 53 42 35 33
7 7 7 7 7 5 4 9 7 6 8 5 20 20 5 6 10 22 31 32 31 35 28 30 40 44 41 33 27 33 49 45 57 61 58 69 65 88 87 83 63 66 75 71 67 61 52 47 47
Wind_Direction_850mb
263 298 277 49 61 61 271 262 247 223 200 186 132 164 184 212 200 218 319 182 178 171 170 170 170 171 167 163 160 160 158 158 156 151 144 138 130 122 116 111 104 94 82 73 66 72 77 80 77
212 249 267 115 92 71 262 256 235 242 81 79 175 234 235 244 244 257 255 179 180 174 172 172 173 174 173 167 166 165 162 162 161 154 147 140 132 123 115 107 97 89 76 60 50 54 59 62 79
242 201 191 102 124 194 227 223 240 316 316 124 270 233 205 218 232 221 222 176 180 178 175 174 174 178 178 172 170 170 168 167 166 160 152 146 137 124 112 101 88 80 74 60 45 46 56 52 51
191 166 109 112 217 248 226 66 263 272 297 246 216 254 199 243 226 198 184 178 181 181 179 176 176 182 181 179 176 175 175 174 173 168 161 153 145 133 115 91 74 77 74 71 62 62 73 79 76
194 169 83 197 235 260 267 277 293 283 277 251 212 268 270 215 170 182 178 180 183 183 183 179 179 184 184 184 183 181 182 181 180 176 168 161 152 142 121 89 65 70 69 59 55 50 86 102 94
143 116 88 232 231 247 282 264 284 298 343 241 169 125 291 241 200 182 180 181 184 185 185 184 184 188 187 187 187 186 185 185 186 181 174 168 162 151 114 56 71 76 57 19 26 34 97 153 132
136 94 210 239 236 280 230 320 314 324 323 255 175 165 123 287 225 187 187 186 185 188 186 187 187 190 193 191 191 190 189 189 188 186 180 176 172 162 110 108 96 41 25 51 75 104 113 118 126
180 102 184 259 233 269 204 334 329 336 323 129 160 133 165 242 238 200 190 187 188 190 192 191 192 193 195 196 195 194 194 194 193 190 186 184 178 159 137 132 106 36 79 74 79 113 146 134 44
164 72 216 237 221 241 310 10 321 321 322 303 226 192 193 192 222 200 193 188 190 193 194 196 195 197 198 199 198 196 196 197 197 194 191 190 182 161 136 138 114 105 101 106 82 100 132 188 339
158 154 220 206 211 255 295 307 304 318 342 343 133 184 170 168 195 198 199 193 197 197 197 198 200 201 199 202 202 200 200 200 201 199 196 192 179 158 142 124 117 109 113 154 33 89 95 245 277
192 215 208 258 269 279 280 291 302 294 324 300 283 158 180 202 207 204 209 204 200 202 202 202 206 207 205 206 206 205 204 204 204 202 199 196 185 177 155 145 121 83 359 338 12 353 345 36 221
255 251 239 278 282 278 251 290 295 284 275 287 307 239 208 194 202 201 213 209 203 204 204 205 207 212 213 212 211 210 209 207 208 206 204 203 197 185 190 182 193 273 321 329 342 335 331 326 4
190 254 272 282 287 286 282 267 250 276 289 269 244 175 184 195 207 213 221 220 211 205 202 205 213 214 215 214 214 213 213 213 213 209 211 207 200 195 194 214 227 255 288 306 315 318 301 211 223
269 260 287 295 289 270 229 261 191 282 294 214 197 208 193 199 214 216 218 226 220 212 207 211 214 217 216 215 216 218 216 217 217 214 216 216 207 201 207 217 231 239 263 285 293 285 257 200 216
286 314 325 245 280 270 223 295 219 274 282 270 208 247 240 231 226 231 229 228 225 220 212 215 216 214 216 217 217 218 216 218 219 216 216 217 211 208 214 219 230 239 260 274 274 261 242 233 194
1 52 350 290 327 279 162 270 274 292 295 289 271 256 256 259 240 233 234 239 230 222 219 218 214 214 210 212 214 217 210 207 217 215 215 214 208 209 218 213 220 246 270 259 258 262 227 226 180
4 256 297 315 238 260 153 293 278 304 299 294 286 281 267 260 244 240 239 231 233 224 223 220 217 213 209 210 209 207 207 207 209 204 200 203 209 209 215 215 232 253 250 244 250 252 226 201 172
234 300 279 271 292 346 311 279 287 304 322 297 302 298 285 269 259 241 232 230 233 234 226 224 217 216 209 208 208 207 209 206 199 199 202 206 208 210 216 219 235 249 233 237 236 236 225 202 196
216 234 269 279 273 333 272 273 282 293 312 310 317 323 315 301 265 258 249 235 234 227 224 222 218 220 208 205 210 208 210 203 200 205 208 211 208 211 220 227 243 236 226 229 224 214 219 203 197
208 249 271 291 268 146 276 264 267 279 261 286 311 321 329 326 288 265 252 232 224 226 224 226 220 221 213 213 213 210 208 207 207 209 210 213 214 217 227 232 242 229 221 220 220 218 207 199 190
240 208 260 232 288 273 249 272 248 279 268 306 312 340 357 356 336 302 280 247 241 224 227 228 223 221 217 216 213 209 209 211 210 208 210 208 215 226 228 239 237 224 219 220 219 217 211 198 203
263 224 247 266 273 265 127 273 270 251 294 344 23 20 9 4 1 337 304 253 239 230 228 224 225 223 216 216 216 213 211 209 213 207 207 206 214 225 231 238 225 221 219 218 217 212 215 215 211
229 266 248 244 231 211 275 20 275 217 293 33 12 18 33 33 18 355 319 257 242 239 228 229 221 223 218 218 220 217 214 213 213 207 207 207 213 220 231 229 218 216 216 215 213 215 215 220 224
281 280 11 45 117 247 215 187 248 296 318 57 16 20 26 42 31 19 352 272 234 242 235 227 223 218 214 217 213 214 212 215 215 214 209 208 212 219 225 220 217 215 215 214 214 216 218 218 228
42 59 325 309 318 249 324 80 331 69 34 34 41 29 28 39 49 42 34 23 228 230 225 216 211 213 214 218 212 212 214 221 223 223 217 212 215 219 221 216 214 214 214 215 217 220 219 223 229
14 86 114 268 271 276 324 256 50 75 72 40 48 48 52 50 50 50 50 48 63 185 202 215 217 216 219 229 230 222 224 221 226 222 216 215 218 225 225 224 217 217 216 217 216 214 217 218 220
327 57 149 180 359 11 264 107 101 71 34 26 22 50 49 54 50 48 54 54 60 79 159 179 209 227 234 240 249 243 233 233 225 223 219 217 225 226 228 234 233 223 225 224 221 219 217 219 222
89 279 63 40 354 305 313 335 99 352 20 1 2 30 50 54 58 55 53 54 60 67 79 95 146 155 222 243 245 245 248 245 240 226 224 222 219 222 232 239 238 233 227 227 225 223 217 220 230
4 36 53 99 179 201 201 271 328 292 296 359 303 48 66 53 61 65 62 62 54 52 60 70 66 65 39 287 267 264 230 242 247 250 237 231 237 253 257 242 238 239 238 233 231 225 219 219 230
140 153 117 148 228 261 201 268 221 224 263 343 308 283 352 32 58 79 71 60 50 61 60 41 44 42 35 10 330 295 274 243 240 238 245 227 257 238 236 224 239 248 237 237 238 233 226 220 223